• In Österreich
  • Länderverzeichnis
  • Für 7 Tage
  • Wassertemperatur
  • Satellitenkarten
  • Wetterkarte
  • News
  • Widgets
  • user-avatar
    Anmelden

    Stündliche Wetter Zielomysl

    Heute, 22 September, Samstag

    Zeit Temperatur Niederschläge Wind Luftdruck Luftfeuchtigkeit
    00:00 +14°C° 0 mm 5 m/S 753 mmHg 73%
    01:00 +13°C° 0 mm 4 m/S 754 mmHg 71%
    02:00 +13°C° 0 mm 4 m/S 754 mmHg 70%
    03:00 +12°C° 0 mm 4 m/S 754 mmHg 69%
    04:00 +12°C° 0 mm 5 m/S 755 mmHg 68%
    05:00 +12°C° 0 mm 5 m/S 755 mmHg 67%
    06:00 +11°C° 0 mm 6 m/S 755 mmHg 66%
    07:00 +11°C° 0 mm 6 m/S 756 mmHg 65%
    08:00 +13°C° 0 mm 6 m/S 756 mmHg 63%
    09:00 +14°C° 0 mm 6 m/S 756 mmHg 60%
    10:00 +14°C° 0 mm 7 m/S 757 mmHg 57%
    11:00 +15°C° 0 mm 6 m/S 757 mmHg 53%
    12:00 +16°C° 0 mm 6 m/S 757 mmHg 49%
    13:00 +17°C° 0 mm 6 m/S 757 mmHg 44%
    14:00 +17°C° 0.1 mm 6 m/S 757 mmHg 45%
    15:00 +17°C° 0.1 mm 6 m/S 756 mmHg 46%
    16:00 +17°C° 0.1 mm 5 m/S 756 mmHg 47%
    17:00 +16°C° 0 mm 5 m/S 756 mmHg 48%
    18:00 +15°C° 0 mm 4 m/S 756 mmHg 50%
    19:00 +15°C° 0 mm 4 m/S 756 mmHg 51%
    20:00 +14°C° 0 mm 4 m/S 756 mmHg 55%
    21:00 +13°C° 0 mm 4 m/S 756 mmHg 58%
    22:00 +13°C° 0 mm 3 m/S 757 mmHg 62%
    23:00 +13°C° 0 mm 4 m/S 756 mmHg 64%

    Morgen, 23 September, Sonntag

    Zeit Temperatur Niederschläge Wind Luftdruck Luftfeuchtigkeit
    00:00 +12°C° 0 mm 4 m/S 756 mmHg 66%
    01:00 +12°C° 0 mm 4 m/S 756 mmHg 68%
    02:00 +12°C° 0.1 mm 4 m/S 756 mmHg 73%
    03:00 +11°C° 0.1 mm 4 m/S 756 mmHg 77%
    04:00 +11°C° 0.1 mm 4 m/S 756 mmHg 81%
    05:00 +11°C° 0 mm 4 m/S 756 mmHg 83%
    06:00 +11°C° 0 mm 4 m/S 756 mmHg 85%
    07:00 +10°C° 0 mm 4 m/S 756 mmHg 86%
    08:00 +12°C° 0 mm 4 m/S 756 mmHg 78%
    09:00 +13°C° 0 mm 4 m/S 756 mmHg 70%
    10:00 +14°C° 0 mm 4 m/S 756 mmHg 62%
    11:00 +15°C° 0 mm 4 m/S 755 mmHg 59%
    12:00 +15°C° 0 mm 4 m/S 755 mmHg 56%
    13:00 +17°C° 0 mm 4 m/S 755 mmHg 53%
    14:00 +16°C° 0.1 mm 3 m/S 754 mmHg 58%
    15:00 +15°C° 0.1 mm 2 m/S 753 mmHg 62%
    16:00 +15°C° 0.1 mm 2 m/S 752 mmHg 67%
    17:00 +14°C° 1.2 mm 2 m/S 751 mmHg 74%
    18:00 +13°C° 1.2 mm 2 m/S 750 mmHg 81%
    19:00 +12°C° 1.2 mm 2 m/S 749 mmHg 88%
    20:00 +11°C° 3.6 mm 3 m/S 748 mmHg 88%
    21:00 +10°C° 3.6 mm 4 m/S 747 mmHg 89%
    22:00 +9°C° 3.6 mm 6 m/S 746 mmHg 89%
    23:00 +9°C° 1.5 mm 6 m/S 746 mmHg 89%

    übermorgen, 24 September, Montag

    Zeit Temperatur Niederschläge Wind Luftdruck Luftfeuchtigkeit
    00:00 +8°C° 1.5 mm 6 m/S 747 mmHg 88%
    01:00 +8°C° 1.5 mm 7 m/S 747 mmHg 87%
    02:00 +8°C° 0.6 mm 7 m/S 749 mmHg 86%
    03:00 +9°C° 0.6 mm 7 m/S 750 mmHg 86%
    04:00 +9°C° 0.6 mm 7 m/S 752 mmHg 85%
    05:00 +9°C° 0.1 mm 7 m/S 753 mmHg 82%
    06:00 +8°C° 0.1 mm 7 m/S 754 mmHg 79%
    07:00 +7°C° 0.1 mm 8 m/S 755 mmHg 76%
    08:00 +9°C° 0 mm 8 m/S 756 mmHg 70%
    09:00 +10°C° 0 mm 9 m/S 756 mmHg 63%
    10:00 +11°C° 0 mm 9 m/S 757 mmHg 57%
    11:00 +11°C° 0.1 mm 10 m/S 758 mmHg 53%
    12:00 +12°C° 0.1 mm 10 m/S 758 mmHg 49%
    13:00 +12°C° 0.1 mm 10 m/S 759 mmHg 45%
    14:00 +12°C° 0.1 mm 9 m/S 759 mmHg 46%
    15:00 +12°C° 0.1 mm 8 m/S 760 mmHg 46%
    16:00 +12°C° 0.1 mm 8 m/S 760 mmHg 47%
    17:00 +10°C° 0 mm 7 m/S 761 mmHg 51%
    18:00 +9°C° 0 mm 5 m/S 762 mmHg 56%
    19:00 +8°C° 0 mm 4 m/S 762 mmHg 60%
    20:00 +8°C° 0 mm 4 m/S 763 mmHg 61%
    21:00 +8°C° 0 mm 5 m/S 763 mmHg 63%
    22:00 +8°C° 0 mm 5 m/S 764 mmHg 64%
    23:00 +7°C° 0 mm 5 m/S 764 mmHg 65%

    25 September, Dienstag

    Zeit Temperatur Niederschläge Wind Luftdruck Luftfeuchtigkeit
    00:00 +7°C° 0 mm 5 m/S 765 mmHg 67%
    01:00 +7°C° 0 mm 5 m/S 765 mmHg 69%
    02:00 +7°C° 0 mm 4 m/S 766 mmHg 70%
    03:00 +6°C° 0 mm 4 m/S 766 mmHg 71%
    04:00 +6°C° 0 mm 4 m/S 766 mmHg 73%
    05:00 +6°C° 0 mm 4 m/S 767 mmHg 72%
    06:00 +6°C° 0 mm 4 m/S 767 mmHg 72%
    07:00 +6°C° 0 mm 4 m/S 768 mmHg 72%
    08:00 +8°C° 0 mm 4 m/S 768 mmHg 65%
    09:00 +9°C° 0 mm 5 m/S 768 mmHg 58%
    10:00 +12°C° 0 mm 5 m/S 768 mmHg 51%
    11:00 +13°C° 0 mm 5 m/S 768 mmHg 49%
    12:00 +13°C° 0 mm 6 m/S 767 mmHg 47%
    13:00 +14°C° 0 mm 6 m/S 767 mmHg 45%
    14:00 +14°C° 0 mm 7 m/S 766 mmHg 47%
    15:00 +14°C° 0 mm 7 m/S 765 mmHg 49%
    16:00 +12°C° 0 mm 7 m/S 764 mmHg 51%
    17:00 +12°C° 0.1 mm 7 m/S 764 mmHg 54%
    18:00 +11°C° 0.1 mm 7 m/S 764 mmHg 56%
    19:00 +11°C° 0.1 mm 7 m/S 763 mmHg 59%
    20:00 +11°C° 0.6 mm 7 m/S 763 mmHg 66%
    21:00 +10°C° 0.6 mm 7 m/S 763 mmHg 72%
    22:00 +10°C° 0.6 mm 6 m/S 763 mmHg 79%
    23:00 +9°C° 0.4 mm 6 m/S 763 mmHg 81%

    26 September, Mittwoch

    Zeit Temperatur Niederschläge Wind Luftdruck Luftfeuchtigkeit
    00:00 +9°C° 0.4 mm 5 m/S 764 mmHg 82%
    01:00 +10°C° 0.4 mm 4 m/S 764 mmHg 84%
    02:00 +8°C° 0 mm 4 m/S 764 mmHg 85%
    03:00 +8°C° 0 mm 4 m/S 764 mmHg 86%
    04:00 +7°C° 0 mm 4 m/S 765 mmHg 86%
    05:00 +7°C° 0 mm 4 m/S 765 mmHg 87%
    06:00 +8°C° 0 mm 4 m/S 765 mmHg 87%
    07:00 +8°C° 0 mm 4 m/S 766 mmHg 87%
    08:00 +10°C° 0 mm 4 m/S 766 mmHg 81%
    09:00 +12°C° 0 mm 4 m/S 766 mmHg 74%
    10:00 +13°C° 0 mm 4 m/S 767 mmHg 68%
    11:00 +14°C° 0 mm 4 m/S 767 mmHg 66%
    12:00 +15°C° 0 mm 4 m/S 767 mmHg 63%
    13:00 +15°C° 0 mm 4 m/S 767 mmHg 61%
    14:00 +15°C° 0 mm 4 m/S 766 mmHg 62%
    15:00 +17°C° 0 mm 3 m/S 766 mmHg 63%
    16:00 +17°C° 0 mm 3 m/S 766 mmHg 64%
    17:00 +14°C° 0 mm 3 m/S 766 mmHg 68%
    18:00 +13°C° 0 mm 3 m/S 766 mmHg 72%
    19:00 +12°C° 0 mm 3 m/S 766 mmHg 76%
    20:00 +12°C° 0 mm 3 m/S 766 mmHg 77%
    21:00 +11°C° 0 mm 3 m/S 765 mmHg 78%
    22:00 +11°C° 0 mm 3 m/S 765 mmHg 79%
    23:00 +11°C° 0 mm 3 m/S 765 mmHg 80%

    27 September, Donnerstag

    Zeit Temperatur Niederschläge Wind Luftdruck Luftfeuchtigkeit
    00:00 +10°C° 0 mm 3 m/S 764 mmHg 81%
    01:00 +10°C° 0 mm 3 m/S 764 mmHg 81%
    02:00 +10°C° 0 mm 4 m/S 763 mmHg 81%
    03:00 +10°C° 0 mm 4 m/S 763 mmHg 81%
    04:00 +10°C° 0 mm 4 m/S 762 mmHg 81%
    05:00 +10°C° 0 mm 4 m/S 762 mmHg 79%
    06:00 +10°C° 0 mm 4 m/S 761 mmHg 77%
    07:00 +10°C° 0 mm 4 m/S 761 mmHg 75%
    08:00 +12°C° 0 mm 5 m/S 761 mmHg 67%
    09:00 +14°C° 0 mm 5 m/S 760 mmHg 58%
    10:00 +16°C° 0 mm 6 m/S 760 mmHg 50%
    11:00 +17°C° 0 mm 6 m/S 759 mmHg 47%
    12:00 +19°C° 0 mm 6 m/S 759 mmHg 43%
    13:00 +20°C° 0 mm 6 m/S 758 mmHg 40%
    14:00 +20°C° 0 mm 6 m/S 757 mmHg 40%
    15:00 +20°C° 0 mm 6 m/S 757 mmHg 41%
    16:00 +20°C° 0 mm 5 m/S 756 mmHg 42%
    17:00 +17°C° 0 mm 5 m/S 756 mmHg 45%
    18:00 +16°C° 0 mm 5 m/S 756 mmHg 48%
    19:00 +15°C° 0 mm 5 m/S 755 mmHg 51%
    20:00 +15°C° 0.1 mm 6 m/S 756 mmHg 57%
    21:00 +14°C° 0.1 mm 6 m/S 756 mmHg 63%
    22:00 +14°C° 0.1 mm 7 m/S 756 mmHg 69%
    23:00 +13°C° 0.1 mm 6 m/S 757 mmHg 72%
    Mehr zeigen